Location: Poughquag
(41.6090°N, 73.6820°W)
Time: 11:33:52
(UTC-04:00)

S-56A Canister/Altair - Pass Details

Date: 03 June 2020
Orbit: 633 x 2499 km, 38.9° (Epoch: 06 July)

Event Time Altitude Azimuth Distance (km) Brightness Sun altitude
Rises 05:35:32 0° 251° (WSW) 3,216 10.0 1.4°
Reaches altitude 10° 05:37:39 10° 248° (WSW) 2,427 9.5 1.7°
Maximum altitude 05:43:16 66° 167° (SSE) 1,143 8.4 2.6°
Drops below altitude 10° 05:51:44 10° 88° (E) 3,588 12.4 4.0°
Sets 05:55:29 0° 86° (E) 4,882 13.1 4.7°
